Погода в Средней Елюзани

Россия / Пензенская область     53°01′46″N   45°57′03″E
темп.,
°C
ветер,
м/с
пор.,
м/с
влажн.,
%
обл.,
%
осадки,
мм/ч
давл.,
гПа
погр.,
м
13 мая, чт
чт1300:00+12вюв23936 0.0 102228
03:00+11всв22920 0.0 102125
06:00+14в41188100 0.1 1020322
09:00+15вюв71386100 2.1 1019585
12:00+22юв9136463 0.8 10181604
15:00+22юв912674 1.4 10171517
18:00+21ю4107394 1.7 1017292
21:00+15юв22907 4.3 101816
14 мая, пт
пт1400:00+14юв3390100 0.8 101836
03:00+14ююв228958 0.8 101912
06:00+16юв2285100 0.0 102081
09:00+20ююв2371100 0.0 1020433
12:00+24ююв45585 0.0 10191184
15:00+25ююв56535 0.0 10191379
18:00+23юв356999 0.0 1018110
21:00+18юв3375100 0.0 101842
15 мая, сб
сб1500:00+17юв41462100 0.0 1018258
03:00+16ююв5136397 0.0 1018199
06:00+17ююв5146364 0.0 1018257
09:00+22ююв613515 0.0 1018576
12:00+25ююв711434 0.0 1018923
15:00+26ююв611445 0.0 10171348
18:00+23ююв486135 0.0 1017169
21:00+18ююв48614 0.0 101792
16 мая, вс
вс1600:00+17ююв5145552 0.0 1016212
03:00+15ю4116166 0.0 1016170
06:00+17ююв37696 0.0 1017170
09:00+23ю575049 0.0 1017456
12:00+26ю684096 0.0 10171088
15:00+26ююз58435 0.0 10161733
18:00+23ююв366193 0.0 1016114
21:00+18ююз225790 0.0 101611
17 мая, пн
пн1700:00+17вюв225498 0.0 101611
03:00+16вюв225838 0.0 101711
06:00+18ю366770 0.0 1017117
09:00+24ююв464848 0.0 1017463
12:00+28ю573119 0.0 10171540
15:00+27ююв4740100 0.0 10171581
18:00+24в3350100 0.0 101624
21:00+19вюв335086 0.0 101737